Location: ?????????
(38.5999°N, 22.7695°E)
Time: 09:39:11
(UTC+00:00)

Okean 2 Rocket - Pass Details

Date: 23 May 2024
Orbit: 614 x 637 km, 82.5° (Epoch: 23 June)

Event Time Altitude Azimuth Distance (km) Brightness Sun altitude
Rises 01:12:29 0° 358° (N) 2,893 7.2 -19.0°
Reaches altitude 10° 01:14:47 10° 5° (N) 1,985 6.4 -18.7°
Maximum altitude 01:19:02 48° 80° (E) 811 4.0 -18.2°
Drops below altitude 10° 01:23:17 10° 155° (SSE) 1,981 5.4 -17.6°
Enters shadow 01:24:04 - 157° (SSE) 2,291 5.7 -17.5°
